[[{"header":{"parameterUnit":"m.s-1","parameterCategory":1,"la1":30.2991,"la2":30.254,"lo1":-89.0895,"lo2":-89.0444,"dy":0.0017,"dx":0.0017,"nx":28,"ny":28,"refTime":"2024-12-13T09:00:00:Z","depth":0,"parameterNumber":2,"parameterNumberName":"U-component_of_WINDS"},"data":[0,0,0,0,0,0,0,0,0,0,0,0,0,0,0,0,0,0,0,0,0,0,0,0,0,0,0,0,0,0,0,0,0,0,0,0,0,0,0,0,0,0,0,0,0,0,0,0,0,0,0,0,0,0,0,0,0,0,-5.537,-5.537,0,-5.5366,-5.5366,-5.5366,-5.5273,-5.527,-5.5268,-5.5266,-5.5263,-5.5265,-5.5267,0,0,0,0,0,0,0,0,0,0,0,0,0,-5.5298,-5.53,-5.537,-5.537,-5.537,-5.5366,-5.5366,-5.5366,-5.5273,-5.527,-5.5267,-5.5264,-5.5262,-5.5265,-5.5267,0,0,0,0,0,0,0,0,0,0,0,0,0,-5.5316,-5.5301,-5.537,-5.5323,-5.5319,-5.5366,-5.5366,-5.5366,-5.5274,-5.527,-5.5266,-5.5263,-5.5261,-5.5264,-5.5268,-5.536,0,0,-5.5277,-5.5279,0,0,0,0,0,0,0,0,-5.5315,-5.5318,-5.533,-5.5326,-5.5322,-5.5316,-5.534,-5.5364,-5.5275,-5.5291,-5.5265,-5.5261,-5.5284,-5.5285,-5.5292,-5.536,-5.536,-5.5278,-5.528,-5.5281,-5.5282,0,0,0,0,0,0,0,-5.5314,-5.5318,-5.5369,-5.533,-5.5325,-5.5303,-5.5301,-5.5344,-5.5308,-5.5289,-5.5282,-5.5283,-5.5281,-5.5289,-5.5291,-5.536,-5.5278,-5.5281,-5.5283,-5.5284,-5.5505,-5.5509,0,0,0,0,0,0,-5.5319,-5.5318,-5.5369,-5.5369,-5.5309,-5.5307,-5.5305,-5.5322,-5.5307,-5.5301,-5.5286,-5.5279,-5.5285,-5.5288,-5.5291,-5.5398,-5.5281,-5.5284,-5.5286,-5.5501,-5.5506,-5.551,0,0,0,0,0,0,-5.5318,-5.5324,-5.5369,-5.5341,-5.5345,-5.5312,-5.5331,-5.5324,-5.5332,-5.5305,-5.5298,-5.5302,-5.5283,-5.5286,-5.5344,-5.5397,-5.5286,-5.5289,-5.5497,-5.5503,-5.5508,-5.5615,0,0,0,0,0,0,-5.5316,-5.5324,-5.5359,-5.5343,-5.5347,-5.5422,-5.5335,-5.5326,-5.5338,-5.5328,-5.5317,-5.5312,-5.528,-5.5339,-5.5347,-5.5399,-5.5291,-5.5492,-5.5499,-5.5506,-5.5606,-5.5623,-5.5638,0,0,0,0,0,-5.5314,-5.5389,-5.5361,-5.5368,-5.5389,-5.5425,-5.5427,-5.5389,-5.5342,-5.5377,-5.536,-5.5312,-5.5391,-5.5346,-5.5354,-5.5408,-5.5488,-5.5497,-5.5506,-5.5599,-5.562,-5.5638,0,0,0,0,0,0,-5.5411,-5.5386,-5.5354,-5.5426,-5.5429,-5.5409,-5.5451,-5.5412,-5.5428,-5.5418,-5.537,-5.5368,-5.5434,-5.5427,-5.5378,-5.5498,-5.5431,-5.5442,-5.5499,-5.5519,-5.5535,-5.5534,-5.5294,0,0,0,0,0,-5.5441,-5.5472,-5.5448,-5.5514,-5.5517,-5.5484,-5.5498,-5.5469,-5.5469,-5.5469,-5.5456,-5.5459,-5.5484,-5.5501,-5.5523,-5.5606,-5.5602,-5.5647,-5.5663,-5.5676,-5.5686,-5.573,-5.5749,-5.5539,-5.5539,-5.5539,0,0,-5.5503,-5.5493,-5.5515,-5.5533,-5.5531,-5.5565,-5.5485,-5.5524,-5.5548,-5.5475,-5.5528,-5.552,-5.552,-5.559,-5.5621,-5.5587,-5.5744,-5.5688,-5.5698,-5.57,-5.5741,-5.5761,-5.5778,-5.5545,-5.5544,-5.5543,0,0,-5.5633,-5.5628,-5.5683,-5.5683,-5.5682,-5.566,-5.5673,-5.566,-5.5651,-5.5704,-5.5651,-5.568,-5.5724,-5.5726,-5.5733,-5.5867,-5.5824,-5.5876,-5.5959,-5.6002,-5.6018,-5.6033,-5.608,-5.6098,-5.5886,-5.5886,-5.5886,0,-5.5709,-5.5757,-5.5716,-5.5758,-5.5768,-5.5704,-5.576,-5.5762,-5.5768,-5.5777,-5.5739,-5.5794,-5.5789,-5.586,-5.5893,-5.5901,-5.5915,-5.5875,-5.6019,-5.6033,-5.6046,-5.6091,-5.6109,-5.5892,-5.5891,-5.5891,-5.589,0,-5.5852,-5.5886,-5.5931,-5.5938,-5.5953,-5.6002,-5.5969,-5.599,-5.596,-5.5943,-5.5998,-5.5991,-5.601,-5.6025,-5.5996,-5.6093,-5.6072,-5.6028,-5.5959,-5.6073,-5.6114,-5.6131,-5.5901,-5.5899,-5.5897,-5.5895,0,0,-5.604,-5.6026,-5.6043,-5.6046,-5.6041,-5.6067,-5.6114,-5.6133,-5.6151,-5.6159,-5.6197,-5.6237,-5.6197,-5.6205,-5.6176,-5.6215,-5.6321,-5.6165,-5.6165,-5.6194,-5.6427,-5.6459,-5.648,-5.6294,-5.6297,-5.6299,-5.6427,0,-5.6164,-5.6242,-5.6208,-5.629,-5.6321,-5.6263,-5.6304,-5.6306,-5.6292,-5.6317,-5.6302,-5.6331,-5.6276,-5.628,-5.6316,-5.6301,-5.6367,-5.6291,-5.6329,-5.633,-5.6329,-5.6501,-5.6535,-5.6656,-5.6443,-5.6446,-5.6447,0,-5.6319,-5.6333,-5.6419,-5.641,-5.6421,-5.6459,-5.6474,-5.6499,-5.6501,-5.6488,-5.6499,-5.6462,-5.6508,-5.6442,-5.6506,-5.6455,-5.6469,-5.6464,-5.6468,-5.6468,-5.6395,-5.6506,-5.6693,-5.6711,-5.6473,-5.6471,-5.6469,0,-5.6447,-5.6488,-5.6544,-5.6549,-5.654,-5.6567,-5.6565,-5.6563,-5.6578,-5.6592,-5.6601,-5.6621,-5.6631,-5.6648,-5.6618,-5.6572,-5.6686,-5.6617,-5.6676,-5.6677,-5.6701,-5.6699,-5.6892,-5.6713,-5.6712,-5.6712,-5.6712,0,-5.6589,-5.6643,-5.6601,-5.6636,-5.6696,-5.6657,-5.6717,-5.6708,-5.6708,-5.674,-5.6692,-5.6724,-5.6682,-5.6711,-5.6688,-5.6744,-5.6749,-5.6741,-5.6733,-5.6744,-5.6745,-5.6751,-5.6741,-5.6717,-5.6716,-5.6715,-5.6714,0,-5.674,-5.6715,-5.6772,-5.676,-5.6758,-5.6803,-5.6792,-5.6824,-5.6808,-5.685,-5.6857,-5.6832,-5.6862,-5.6835,-5.6864,-5.6849,-5.6924,-5.6905,-5.6923,-5.6917,-5.6978,-5.6972,-5.718,-5.7205,-5.7011,-5.7013,-5.7014,0,-5.6831,-5.6872,-5.6865,-5.6883,-5.6884,-5.6914,-5.6928,-5.6892,-5.691,-5.6916,-5.6948,-5.6975,-5.6994,-5.7046,-5.7031,-5.7054,-5.7034,-5.7106,-5.7037,-5.7047,-5.7035,-5.7032,-5.7036,-5.7119,-5.7121,-5.7123,-5.7125,0,-5.6996,-5.6982,-5.7005,-5.7024,-5.7043,-5.7057,-5.7066,-5.7084,-5.7048,-5.707,-5.7101,-5.7116,-5.7147,-5.7174,-5.7193,-5.7191,-5.7152,-5.7147,-5.7162,-5.7172,-5.718,-5.7176,-5.6959,-5.7142,-5.714,-5.7139,-5.7138,-5.7137,-5.7119,-5.7153,-5.7153,-5.7181,-5.7185,-5.7196,-5.7225,-5.7213,-5.7238,-5.726,-5.7238,-5.7276,-5.7279,-5.7299,-5.7303,-5.7332,-5.7302,-5.7324,-5.7329,-5.7335,-5.7343,-5.7177,-5.7336,-5.7335,-5.7335,-5.7334,-5.7334,0,-5.728,-5.7278,-5.7304,-5.732,-5.7342,-5.7305,-5.7315,-5.7336,-5.7369,-5.7375,-5.7396,-5.7432,-5.7459,-5.7447,-5.7471,-5.7497,-5.748,-5.7505,-5.7501,-5.7502,-5.7369,-5.7353,-5.7518,-5.7518,-5.7518,-5.7518,-5.7518,-5.7518,-5.7367,-5.7422,-5.7408,-5.7466,-5.7463,-5.75,-5.7508,-5.7519,-5.7523,-5.7566,-5.7588,-5.758,-5.7579,-5.7603,-5.7627,-5.7622,-5.7633,-5.7664,-5.7653,-5.7529,-5.7511,-5.7494,-5.7478,-5.7667,-5.7667,-5.7783,-5.7784,-5.7785]},{"header":{"parameterUnit":"m.s-1","parameterCategory":1,"la1":30.2991,"la2":30.254,"lo1":-89.0895,"lo2":-89.0444,"dy":0.0017,"dx":0.0017,"nx":28,"ny":28,"refTime":"2024-12-13T09:00:00:Z","depth":0,"parameterNumber":3,"parameterNumberName":"V-component_of_WINDS"},"data":[0,0,0,0,0,0,0,0,0,0,0,0,0,0,0,0,0,0,0,0,0,0,0,0,0,0,0,0,0,0,0,0,0,0,0,0,0,0,0,0,0,0,0,0,0,0,0,0,0,0,0,0,0,0,0,0,0,0,0.888,0.8881,0,0.8944,0.8945,0.8946,0.8986,0.8986,0.8986,0.8986,0.9051,0.9052,0.9054,0,0,0,0,0,0,0,0,0,0,0,0,0,0.8793,0.8795,0.888,0.8881,0.8882,0.8944,0.8945,0.8946,0.8986,0.8986,0.8986,0.8987,0.905,0.9052,0.9054,0,0,0,0,0,0,0,0,0,0,0,0,0,0.8842,0.8795,0.888,0.8909,0.8912,0.8944,0.8945,0.8946,0.8986,0.8986,0.8986,0.8987,0.905,0.9052,0.9054,0.9062,0,0,0.9061,0.9062,0,0,0,0,0,0,0,0,0.8839,0.8845,0.8904,0.8907,0.8911,0.8958,0.8938,0.8985,0.8986,0.8958,0.8986,0.8987,0.902,0.9024,0.9036,0.9065,0.9067,0.9061,0.9063,0.9064,0.9064,0,0,0,0,0,0,0,0.8835,0.8842,0.8906,0.8905,0.8909,0.892,0.8927,0.8947,0.8986,0.896,0.8963,0.897,0.9021,0.9033,0.9037,0.9068,0.9061,0.9063,0.9065,0.9066,0.9111,0.911,0,0,0,0,0,0,0.8828,0.8839,0.8904,0.8908,0.8875,0.8921,0.8929,0.8942,0.8986,0.8993,0.897,0.8972,0.9029,0.9035,0.904,0.9054,0.9064,0.9066,0.9067,0.9111,0.911,0.911,0,0,0,0,0,0,0.8825,0.8833,0.8901,0.8874,0.8884,0.8922,0.8937,0.8943,0.8955,0.8993,0.9,0.8975,0.903,0.9037,0.9057,0.9056,0.9067,0.9069,0.9111,0.9111,0.911,0.908,0,0,0,0,0,0,0.8823,0.8832,0.8834,0.8874,0.8885,0.8916,0.8937,0.8944,0.8959,0.8962,0.9,0.9006,0.9031,0.9053,0.9059,0.906,0.9071,0.9111,0.9111,0.911,0.9081,0.9078,0.9076,0,0,0,0,0,0.882,0.8822,0.8834,0.8842,0.8889,0.8916,0.8923,0.8951,0.8959,0.8962,0.8988,0.9005,0.9055,0.9055,0.9062,0.9063,0.9111,0.9111,0.911,0.9082,0.9079,0.9076,0,0,0,0,0,0,0.878,0.8828,0.8842,0.8857,0.8883,0.8923,0.8928,0.8946,0.8969,0.8971,0.9005,0.9013,0.903,0.9049,0.9047,0.9074,0.9086,0.9087,0.9061,0.9059,0.9056,0.9052,0.9073,0,0,0,0,0,0.8774,0.8792,0.8832,0.8842,0.8854,0.8889,0.8902,0.8922,0.8949,0.8959,0.8986,0.9012,0.9034,0.9047,0.9069,0.9084,0.9094,0.9088,0.9086,0.9084,0.9084,0.9096,0.9095,0.9109,0.9109,0.9109,0,0,0.876,0.8788,0.8797,0.8835,0.8857,0.8876,0.8897,0.8915,0.893,0.8962,0.8983,0.9004,0.9035,0.9053,0.9063,0.9069,0.9083,0.9083,0.9081,0.9083,0.9096,0.9094,0.9093,0.9109,0.9109,0.9109,0,0,0.8744,0.8767,0.8779,0.8801,0.8835,0.8858,0.8861,0.8899,0.8915,0.8937,0.8962,0.898,0.9016,0.9039,0.9054,0.9051,0.9069,0.9057,0.9045,0.9056,0.9055,0.9054,0.9055,0.9054,0.9058,0.9058,0.9057,0,0.8723,0.8752,0.8782,0.88,0.8817,0.8849,0.8862,0.8882,0.892,0.8932,0.8939,0.8987,0.901,0.9035,0.9035,0.9046,0.9052,0.9053,0.9053,0.9052,0.9052,0.9053,0.9053,0.9056,0.9056,0.9056,0.9056,0,0.8724,0.8744,0.875,0.8788,0.8806,0.8821,0.8855,0.8869,0.8888,0.8912,0.8935,0.8965,0.8994,0.9002,0.9019,0.903,0.9034,0.9046,0.9058,0.9048,0.905,0.905,0.9054,0.9054,0.9055,0.9055,0,0,0.8684,0.8742,0.8743,0.8762,0.8803,0.8819,0.8837,0.8867,0.888,0.8906,0.8922,0.8954,0.8967,0.8985,0.9006,0.9016,0.9014,0.9028,0.9029,0.9025,0.903,0.9021,0.902,0.9026,0.9026,0.9027,0.9028,0,0.8676,0.8709,0.8739,0.8762,0.8782,0.8814,0.8829,0.8856,0.8879,0.89,0.8925,0.8948,0.8962,0.8974,0.8985,0.9012,0.9015,0.9012,0.9043,0.9044,0.9035,0.9021,0.9011,0.901,0.9028,0.9028,0.9028,0,0.867,0.8697,0.8722,0.8763,0.8773,0.8786,0.8818,0.8837,0.8869,0.8886,0.8907,0.893,0.8952,0.8962,0.8993,0.899,0.9005,0.902,0.9021,0.9025,0.9035,0.9026,0.901,0.9011,0.9029,0.9029,0.9029,0,0.864,0.8682,0.8704,0.8719,0.8767,0.8776,0.8797,0.883,0.8847,0.8875,0.8886,0.8916,0.8932,0.8955,0.8986,0.899,0.9014,0.9026,0.9029,0.9028,0.9033,0.9032,0.902,0.9041,0.9041,0.9041,0.9041,0,0.8628,0.8642,0.8691,0.8704,0.8722,0.8757,0.8774,0.8798,0.8827,0.8846,0.8875,0.8892,0.8931,0.8954,0.8978,0.9001,0.9008,0.9022,0.9029,0.902,0.9018,0.903,0.9031,0.9041,0.9041,0.9041,0.9041,0,0.8597,0.8631,0.8656,0.8701,0.8713,0.8724,0.8763,0.8777,0.8803,0.8827,0.8834,0.8874,0.8902,0.8935,0.8974,0.899,0.9012,0.9021,0.9001,0.9005,0.9006,0.9006,0.9002,0.9004,0.9022,0.9022,0.9022,0,0.8588,0.86,0.8647,0.8662,0.8682,0.8706,0.8725,0.876,0.8778,0.8818,0.8828,0.8858,0.8885,0.8928,0.8961,0.8991,0.9002,0.8999,0.9006,0.8998,0.9003,0.9003,0.9005,0.8996,0.8996,0.8996,0.8995,0,0.8568,0.8584,0.861,0.8642,0.8664,0.869,0.8718,0.8729,0.877,0.879,0.8819,0.884,0.8881,0.8911,0.8946,0.8968,0.8989,0.8993,0.8995,0.8987,0.8976,0.8983,0.8996,0.8993,0.8993,0.8993,0.8993,0.8993,0.8548,0.8562,0.8598,0.8626,0.8651,0.8677,0.8694,0.8723,0.8748,0.8784,0.8804,0.8834,0.8869,0.8918,0.8939,0.8964,0.8971,0.8974,0.8975,0.8975,0.8974,0.8971,0.897,0.897,0.897,0.897,0.897,0,0.8531,0.8557,0.8582,0.8622,0.8644,0.8663,0.8696,0.8714,0.874,0.877,0.8797,0.8832,0.8863,0.8898,0.8932,0.8944,0.8955,0.8952,0.8952,0.8957,0.8965,0.896,0.8943,0.8943,0.8943,0.8943,0.8943,0.8943,0.8525,0.855,0.8571,0.8609,0.8634,0.8664,0.8682,0.8706,0.8732,0.877,0.8796,0.8819,0.8853,0.8889,0.8919,0.8929,0.894,0.8934,0.8947,0.8953,0.8956,0.8958,0.8954,0.8936,0.8936,0.8937,0.8937,0.8937]}]]